Find Starlink 11514

NORAD ID: 62514 Int'l Des: 2025-004 Owner: SPXS Country: US Constellation: starlink operational
LEOCIRCULAR

当前视图

正在加载3D地球...

关于 Starlink 11514

正在加载描述...

即将过境

Passes for default location (London). Set your location on the main map for personalized predictions.

高度历史

Loading altitude history...

两行轨道根数

1 62514U 25004D 26159.51265833 .00055401 00000-0 43173-3 0 9991
2 62514 42.9976 243.1865 0000937 202.9333 157.1493 15.70876036 81492
Epoch: Jun 8, 2026 • Age: 11 hours

当前状态

高度 358.3 km
速度 7.70 km/s
星下点 38.33°N, 113.46°E
发射日期 Jan 8, 2025
运行时间 1.4 years
类型 internet

技术详情

分类 Payload
质量 960.00 kg
干质量 910.00 kg
总质量 960.00 kg
长度 0.30 m
直径 4.10 m
跨度 29.00 m
形状 Box + pan
制造商 SPXS
平台类型 Starlink V2MD
阶段状态 In Orbit
所有者/国家 SPXS/US

Most Searched